• Em Portugal
  • Lista de países
  • Para 7 dias
  • Temperatura da água
  • Mapas de satélite
  • Mapa do tempo
  • Widgets de tempo
  • user-avatar
    Iniciar Sessão

    Previsão horária em Porto Alegre

    Hoje, 21 Outubro, Domingo

    Tempo Temperatura Precipitação Vento Pressão Humidade
    00:00 +15°C° 0 mm 2 m/s 762 mmHg 78%
    01:00 +15°C° 0 mm 2 m/s 762 mmHg 80%
    02:00 +14°C° 0 mm 2 m/s 762 mmHg 81%
    03:00 +14°C° 0 mm 2 m/s 761 mmHg 81%
    04:00 +14°C° 0 mm 2 m/s 761 mmHg 82%
    05:00 +14°C° 0 mm 2 m/s 761 mmHg 82%
    06:00 +14°C° 0 mm 2 m/s 761 mmHg 83%
    07:00 +16°C° 0 mm 2 m/s 761 mmHg 75%
    08:00 +18°C° 0 mm 2 m/s 761 mmHg 66%
    09:00 +20°C° 0 mm 3 m/s 762 mmHg 58%
    10:00 +22°C° 0 mm 3 m/s 761 mmHg 54%
    11:00 +24°C° 0 mm 3 m/s 761 mmHg 49%
    12:00 +26°C° 0 mm 3 m/s 760 mmHg 45%
    13:00 +26°C° 0 mm 3 m/s 760 mmHg 45%
    14:00 +26°C° 0 mm 4 m/s 760 mmHg 46%
    15:00 +27°C° 0 mm 4 m/s 759 mmHg 46%
    16:00 +25°C° 0 mm 4 m/s 759 mmHg 52%
    17:00 +23°C° 0 mm 4 m/s 759 mmHg 59%
    18:00 +21°C° 0 mm 4 m/s 758 mmHg 65%
    19:00 +20°C° 0 mm 4 m/s 759 mmHg 70%
    20:00 +19°C° 0 mm 3 m/s 759 mmHg 75%
    21:00 +18°C° 0 mm 3 m/s 759 mmHg 79%
    22:00 +17°C° 0 mm 3 m/s 759 mmHg 82%
    23:00 +17°C° 0 mm 3 m/s 759 mmHg 84%

    Amanhã, 22 Outubro, Segunda-feira

    Tempo Temperatura Precipitação Vento Pressão Humidade
    00:00 +17°C° 0 mm 2 m/s 759 mmHg 87%
    01:00 +16°C° 0 mm 2 m/s 758 mmHg 88%
    02:00 +16°C° 0 mm 2 m/s 758 mmHg 89%
    03:00 +16°C° 0 mm 1 m/s 758 mmHg 90%
    04:00 +16°C° 0 mm 1 m/s 758 mmHg 90%
    05:00 +16°C° 0 mm 1 m/s 758 mmHg 90%
    06:00 +16°C° 0 mm 1 m/s 758 mmHg 90%
    07:00 +20°C° 0 mm 1 m/s 758 mmHg 80%
    08:00 +22°C° 0 mm 1 m/s 758 mmHg 70%
    09:00 +25°C° 0 mm 1 m/s 758 mmHg 60%
    10:00 +27°C° 0 mm 1 m/s 758 mmHg 54%
    11:00 +30°C° 0 mm 1 m/s 757 mmHg 48%
    12:00 +32°C° 0 mm 1 m/s 757 mmHg 42%
    13:00 +32°C° 0 mm 1 m/s 757 mmHg 41%
    14:00 +32°C° 0 mm 2 m/s 756 mmHg 40%
    15:00 +32°C° 0 mm 2 m/s 755 mmHg 39%
    16:00 +30°C° 0 mm 2 m/s 756 mmHg 47%
    17:00 +28°C° 0 mm 2 m/s 756 mmHg 55%
    18:00 +26°C° 0 mm 3 m/s 756 mmHg 63%
    19:00 +25°C° 0.3 mm 2 m/s 756 mmHg 69%
    20:00 +24°C° 0.3 mm 2 m/s 757 mmHg 75%
    21:00 +21°C° 0.3 mm 2 m/s 757 mmHg 81%
    22:00 +21°C° 0.2 mm 2 m/s 758 mmHg 83%
    23:00 +21°C° 0.2 mm 2 m/s 758 mmHg 85%

    Depois de amanhã, 23 Outubro, Terça-feira

    Tempo Temperatura Precipitação Vento Pressão Humidade
    00:00 +20°C° 0.2 mm 2 m/s 758 mmHg 87%
    01:00 +20°C° 0.2 mm 2 m/s 758 mmHg 88%
    02:00 +20°C° 0.2 mm 2 m/s 758 mmHg 90%
    03:00 +19°C° 0.2 mm 2 m/s 758 mmHg 91%
    04:00 +19°C° 0 mm 2 m/s 758 mmHg 92%
    05:00 +19°C° 0 mm 2 m/s 759 mmHg 92%
    06:00 +20°C° 0 mm 1 m/s 759 mmHg 93%
    07:00 +20°C° 0 mm 2 m/s 759 mmHg 88%
    08:00 +21°C° 0 mm 2 m/s 760 mmHg 84%
    09:00 +22°C° 0 mm 3 m/s 760 mmHg 79%
    10:00 +24°C° 0 mm 3 m/s 760 mmHg 71%
    11:00 +26°C° 0 mm 3 m/s 760 mmHg 64%
    12:00 +27°C° 0 mm 4 m/s 760 mmHg 56%
    13:00 +27°C° 0 mm 4 m/s 760 mmHg 57%
    14:00 +26°C° 0 mm 5 m/s 759 mmHg 58%
    15:00 +26°C° 0 mm 5 m/s 759 mmHg 59%
    16:00 +25°C° 0 mm 5 m/s 759 mmHg 61%
    17:00 +22°C° 0 mm 5 m/s 759 mmHg 64%
    18:00 +21°C° 0 mm 4 m/s 759 mmHg 66%
    19:00 +20°C° 0 mm 4 m/s 760 mmHg 67%
    20:00 +19°C° 0 mm 4 m/s 761 mmHg 68%
    21:00 +19°C° 0 mm 4 m/s 761 mmHg 70%
    22:00 +18°C° 0 mm 3 m/s 761 mmHg 72%
    23:00 +18°C° 0 mm 3 m/s 761 mmHg 74%

    24 Outubro, Quarta-feira

    Tempo Temperatura Precipitação Vento Pressão Humidade
    00:00 +18°C° 0 mm 3 m/s 761 mmHg 76%
    01:00 +17°C° 0 mm 3 m/s 761 mmHg 78%
    02:00 +17°C° 0 mm 3 m/s 760 mmHg 79%
    03:00 +17°C° 0 mm 3 m/s 760 mmHg 81%
    04:00 +17°C° 0 mm 3 m/s 760 mmHg 81%
    05:00 +17°C° 0 mm 3 m/s 760 mmHg 82%
    06:00 +17°C° 0 mm 3 m/s 760 mmHg 82%
    07:00 +19°C° 0 mm 4 m/s 760 mmHg 76%
    08:00 +21°C° 0 mm 4 m/s 760 mmHg 70%
    09:00 +22°C° 0 mm 4 m/s 761 mmHg 64%
    10:00 +25°C° 0 mm 4 m/s 760 mmHg 60%
    11:00 +26°C° 0 mm 5 m/s 760 mmHg 57%
    12:00 +27°C° 0 mm 5 m/s 760 mmHg 53%
    13:00 +27°C° 0 mm 5 m/s 759 mmHg 55%
    14:00 +27°C° 0 mm 5 m/s 759 mmHg 56%
    15:00 +27°C° 0 mm 5 m/s 758 mmHg 58%
    16:00 +26°C° 0 mm 5 m/s 758 mmHg 61%
    17:00 +25°C° 0 mm 5 m/s 757 mmHg 65%
    18:00 +23°C° 0 mm 5 m/s 757 mmHg 68%
    19:00 +22°C° 0 mm 5 m/s 758 mmHg 71%
    20:00 +21°C° 0 mm 4 m/s 758 mmHg 73%
    21:00 +20°C° 0 mm 4 m/s 759 mmHg 75%
    22:00 +20°C° 0 mm 4 m/s 759 mmHg 76%
    23:00 +20°C° 0 mm 4 m/s 759 mmHg 76%

    25 Outubro, Quinta-feira

    Tempo Temperatura Precipitação Vento Pressão Humidade
    00:00 +20°C° 0 mm 3 m/s 759 mmHg 77%
    01:00 +20°C° 0 mm 3 m/s 758 mmHg 77%
    02:00 +20°C° 0 mm 3 m/s 758 mmHg 78%
    03:00 +20°C° 0 mm 2 m/s 757 mmHg 78%
    04:00 +20°C° 0.1 mm 2 m/s 757 mmHg 80%
    05:00 +20°C° 0.1 mm 2 m/s 757 mmHg 82%
    06:00 +19°C° 0.1 mm 2 m/s 757 mmHg 85%
    07:00 +20°C° 0.4 mm 2 m/s 757 mmHg 86%
    08:00 +20°C° 0.4 mm 2 m/s 757 mmHg 87%
    09:00 +20°C° 0.4 mm 2 m/s 758 mmHg 88%
    10:00 +21°C° 0.2 mm 2 m/s 757 mmHg 84%
    11:00 +24°C° 0.2 mm 2 m/s 757 mmHg 80%
    12:00 +25°C° 0.2 mm 2 m/s 757 mmHg 76%
    13:00 +26°C° 0 mm 2 m/s 756 mmHg 70%
    14:00 +28°C° 0 mm 2 m/s 755 mmHg 63%
    15:00 +29°C° 0 mm 2 m/s 755 mmHg 57%
    16:00 +28°C° 0 mm 2 m/s 755 mmHg 62%
    17:00 +28°C° 0 mm 2 m/s 755 mmHg 67%
    18:00 +27°C° 0 mm 2 m/s 755 mmHg 71%
    19:00 +25°C° 0 mm 2 m/s 755 mmHg 77%
    20:00 +24°C° 0 mm 2 m/s 755 mmHg 84%
    21:00 +21°C° 0 mm 2 m/s 756 mmHg 90%
    22:00 +21°C° 0 mm 2 m/s 755 mmHg 92%
    23:00 +22°C° 0 mm 1 m/s 755 mmHg 94%

    26 Outubro, Sexta-feira

    Tempo Temperatura Precipitação Vento Pressão Humidade
    00:00 +21°C° 0 mm 1 m/s 755 mmHg 96%
    01:00 +21°C° 0.1 mm 1 m/s 755 mmHg 96%
    02:00 +21°C° 0.1 mm 1 m/s 754 mmHg 97%
    03:00 +21°C° 0.1 mm 1 m/s 754 mmHg 97%
    04:00 +20°C° 0.4 mm 2 m/s 754 mmHg 96%
    05:00 +20°C° 0.4 mm 2 m/s 754 mmHg 95%
    06:00 +20°C° 0.4 mm 2 m/s 755 mmHg 94%
    07:00 +21°C° 0.4 mm 3 m/s 755 mmHg 92%
    08:00 +21°C° 0.4 mm 3 m/s 755 mmHg 90%
    09:00 +21°C° 0.4 mm 3 m/s 755 mmHg 87%
    10:00 +21°C° 0.2 mm 3 m/s 755 mmHg 84%
    11:00 +22°C° 0.2 mm 3 m/s 755 mmHg 81%
    12:00 +22°C° 0.2 mm 3 m/s 755 mmHg 79%
    13:00 +22°C° 0.5 mm 3 m/s 755 mmHg 80%
    14:00 +21°C° 0.5 mm 3 m/s 754 mmHg 81%
    15:00 +21°C° 0.5 mm 3 m/s 754 mmHg 83%
    16:00 +21°C° 0.7 mm 4 m/s 754 mmHg 84%
    17:00 +20°C° 0.7 mm 4 m/s 755 mmHg 85%
    18:00 +20°C° 0.7 mm 5 m/s 755 mmHg 86%
    19:00 +19°C° 1.4 mm 4 m/s 755 mmHg 87%
    20:00 +19°C° 1.4 mm 4 m/s 756 mmHg 88%
    21:00 +19°C° 1.4 mm 4 m/s 756 mmHg 89%
    22:00 +18°C° 0.4 mm 4 m/s 756 mmHg 90%
    23:00 +18°C° 0.4 mm 3 m/s 756 mmHg 90%
    Mostrar mais